Flugplatz Backnang-Heiningen

Für EDSH sind keine METAR/TAF Berichte vorhanden.
Es werden die Flugwettermeldungen vom Flugplatz Stuttgart in 30 km Entfernung angezeigt.

Bericht für EDDS

vom 07.03. um 01:20 UTC

variable Windrichtung mit 2 kt

Sichtweite 10 km oder mehr

gute Sicht, keine Wolken < 5000 ft, keine CB, keine Wettererscheinungen (CAVOK)

Temperatur -3.0°C

Taupunkt -8.0°C

Luftfeuchtigkeit 68%

Luftdruck 1026 hPa

EDDS 070120Z VRB02KT CAVOK M03/M08 Q1026

Prognose für EDDS

vom 06.03. um 23:00 UTC

Zwischen 00:00 UTC und 11:00 UTC

variable Windrichtung mit 3 kt

Sichtweite 10 km oder mehr

keine signifikanten Wettererscheinungen

keine Wolken


Zwischen 11:00 und 13:00 UTC übergehend zu

Wind 5 kt aus 340°

Sichtweite 10 km oder mehr

keine signifikanten Wettererscheinungen

keine Wolken

TAF EDDS 062300Z 0700/0724 VRB03KT CAVOK BECMG 0711/0713 34005KT
Impressum